Dyersburg, TN

4:50 PM CST on February 24, 2017 (GMT -0600)
Dyersburg Municipal

Weather History for KDYR - February, 2014

Change the Weather History Date:

Tuesday, February 11, 2014

  Actual Average Record
Temperature  
Mean Temperature 19 °F -  
Max Temperature 26 °F 48 °F 73 °F (1999)
Min Temperature 12 °F 33 °F 10 °F (2011)
Degree Days  
Heating Degree Days 46    
Moisture  
Dew Point 3 °F    
Average Humidity 49    
Maximum Humidity 58    
Minimum Humidity 43    
Precipitation  
Precipitation 0.00 in - - ()
Sea Level Pressure  
Sea Level Pressure 30.39 in    
Wind  
Wind Speed 13 mph (NNE)    
Max Wind Speed 17 mph    
Max Gust Speed 22 mph    
Visibility 10 miles    
Events      
Averages and records for this station are not official NWS values.
T = Trace of Precipitation, MM = Missing Value Source: NWS Daily Summary

Daily Weather History Graph

Daily Weather History Graph

Search for Another Location

Airport or City:

Trip Planner

Search our weather history database for the weather conditions in past years. The results will help you decide how hot, cold, wet, or windy it might be!

Date:

Astronomy

Feb. 11, 2014 Rise Set
Actual Time 6:49 AM CST 5:35 PM CST
Civil Twilight 6:22 AM CST 6:01 PM CST
Nautical Twilight 5:52 AM CST 6:31 PM CST
Astronomical Twilight 5:22 AM CST 7:01 PM CST
Moon 2:57 PM CST (2/11) 4:23 AM CST (2/11)
Length of Visible Light 11h 38m
Length of Day
10h 45m
Waxing Gibbous, 91% of the Moon is Illuminated
Feb 11
Waxing Gibbous
Feb 14
Full
Feb 22
Last Quarter
Mar 1
New
Mar 8
First Quarter

Hourly Weather History & Observations

Time (CST) Temp. Windchill Dew Point Humidity Pressure Visibility Wind Dir Wind Speed Gust Speed Precip Events Conditions
12:15 AM 17.6 °F 5.7 °F 1.4 °F 49% 30.41 in 10.0 mi NE 10.4 mph - N/A   Clear
12:35 AM 17.6 °F 3.2 °F 1.4 °F 49% 30.40 in 10.0 mi NNE 15.0 mph - N/A   Clear
12:55 AM 17.6 °F 4.3 °F -0.4 °F 45% 30.41 in 10.0 mi NE 12.7 mph - N/A   Clear
1:15 AM 15.8 °F 3.4 °F -0.4 °F 49% 30.41 in 10.0 mi NNE 10.4 mph - N/A   Clear
1:35 AM 15.8 °F 1.4 °F -0.4 °F 49% 30.42 in 10.0 mi North 13.8 mph - N/A   Clear
1:55 AM 15.8 °F 2.1 °F -0.4 °F 49% 30.42 in 10.0 mi NNE 12.7 mph - N/A   Clear
2:15 AM 15.8 °F 2.1 °F -0.4 °F 49% 30.42 in 10.0 mi NNE 12.7 mph - N/A   Clear
2:35 AM 14.0 °F -0.2 °F -0.4 °F 53% 30.42 in 10.0 mi North 12.7 mph - N/A   Clear
2:55 AM 14.0 °F -0.2 °F -0.4 °F 53% 30.42 in 10.0 mi NNE 12.7 mph - N/A   Clear
3:15 AM 14.0 °F -1.4 °F -2.2 °F 49% 30.41 in 10.0 mi NNE 15.0 mph - N/A   Clear
3:35 AM 14.0 °F -1.4 °F -0.4 °F 53% 30.41 in 10.0 mi NNE 15.0 mph - N/A   Clear
3:55 AM 14.0 °F -2.5 °F -0.4 °F 53% 30.39 in 10.0 mi NNE 17.3 mph - N/A   Clear
4:15 AM 14.0 °F -0.8 °F -2.2 °F 49% 30.40 in 10.0 mi NNE 13.8 mph 21.9 mph N/A   Clear
4:35 AM 14.0 °F -0.8 °F -2.2 °F 49% 30.41 in 10.0 mi NNE 13.8 mph - N/A   Partly Cloudy
4:55 AM 14.0 °F -0.2 °F -2.2 °F 49% 30.42 in 10.0 mi NNE 12.7 mph 16.1 mph N/A   Mostly Cloudy
5:15 AM 12.2 °F -3.7 °F -2.2 °F 53% 30.41 in 10.0 mi NNE 15.0 mph 20.7 mph N/A   Partly Cloudy
5:35 AM 12.2 °F -3.7 °F -2.2 °F 53% 30.42 in 10.0 mi NNE 15.0 mph 19.6 mph N/A   Clear
5:55 AM 12.2 °F -2.5 °F -2.2 °F 53% 30.43 in 10.0 mi NNE 12.7 mph 19.6 mph N/A   Clear
6:15 AM 12.2 °F -4.8 °F -2.2 °F 53% 30.43 in 10.0 mi NNE 17.3 mph - N/A   Clear
6:35 AM 12.2 °F -2.5 °F -2.2 °F 53% 30.44 in 10.0 mi NNE 12.7 mph - N/A   Clear
6:55 AM 12.2 °F -3.7 °F -2.2 °F 53% 30.45 in 10.0 mi NNE 15.0 mph - N/A   Clear
7:15 AM 12.2 °F -4.8 °F -2.2 °F 53% 30.45 in 10.0 mi NNE 17.3 mph 20.7 mph N/A   Clear
7:35 AM 12.2 °F -3.7 °F -2.2 °F 53% 30.45 in 10.0 mi NE 15.0 mph - N/A   Clear
7:55 AM 12.2 °F -3.1 °F -2.2 °F 53% 30.44 in 10.0 mi NNE 13.8 mph 19.6 mph N/A   Partly Cloudy
8:15 AM 12.2 °F -2.5 °F -2.2 °F 53% 30.47 in 10.0 mi North 12.7 mph - N/A   Partly Cloudy
8:35 AM 14.0 °F 0.5 °F -2.2 °F 49% 30.48 in 10.0 mi North 11.5 mph 16.1 mph N/A   Clear
8:55 AM 15.8 °F 2.1 °F -0.4 °F 49% 30.46 in 10.0 mi NE 12.7 mph - N/A   Clear
9:15 AM 15.8 °F 0.9 °F -0.4 °F 49% 30.44 in 10.0 mi NE 15.0 mph 21.9 mph N/A   Clear
9:35 AM 15.8 °F 2.7 °F 1.4 °F 53% 30.45 in 10.0 mi NE 11.5 mph 16.1 mph N/A   Clear
9:55 AM 17.6 °F 6.4 °F -0.4 °F 45% 30.48 in 10.0 mi North 9.2 mph - N/A   Clear
10:15 AM 19.4 °F 7.2 °F 1.4 °F 46% 30.47 in 10.0 mi NNE 11.5 mph - N/A   Clear
10:35 AM 19.4 °F 6.6 °F 3.2 °F 49% 30.45 in 10.0 mi NE 12.7 mph - N/A   Clear
10:55 AM 19.4 °F 7.9 °F 3.2 °F 49% 30.46 in 10.0 mi NE 10.4 mph - N/A   Clear
11:15 AM 21.2 °F 8.9 °F 5.0 °F 50% 30.46 in 10.0 mi NNE 12.7 mph 17.3 mph N/A   Clear
11:35 AM 21.2 °F 8.3 °F 5.0 °F 50% 30.45 in 10.0 mi NNE 13.8 mph - N/A   Clear
11:55 AM 23.0 °F 11.1 °F 5.0 °F 46% 30.44 in 10.0 mi NNE 12.7 mph - N/A   Scattered Clouds
12:15 PM 23.0 °F 11.7 °F 5.0 °F 46% 30.43 in 10.0 mi NE 11.5 mph - N/A   Overcast
12:35 PM 24.8 °F 14.0 °F 6.8 °F 46% 30.41 in 10.0 mi NE 11.5 mph - N/A   Scattered Clouds
12:55 PM 24.8 °F 15.3 °F 6.8 °F 46% 30.40 in 10.0 mi NNE 9.2 mph - N/A   Mostly Cloudy
1:15 PM 24.8 °F 14.6 °F 6.8 °F 46% 30.39 in 10.0 mi NNE 10.4 mph - N/A   Scattered Clouds
1:35 PM 24.8 °F 13.4 °F 6.8 °F 46% 30.38 in 10.0 mi NNE 12.7 mph 16.1 mph N/A   Clear
1:55 PM 26.6 °F 14.7 °F 6.8 °F 43% 30.37 in 10.0 mi NNE 15.0 mph - N/A   Clear
2:15 PM 26.6 °F 15.2 °F 6.8 °F 43% 30.37 in 10.0 mi NE 13.8 mph - N/A   Clear
2:35 PM 26.6 °F 15.2 °F 6.8 °F 43% 30.36 in 10.0 mi North 13.8 mph - N/A   Clear
2:55 PM 26.6 °F 15.7 °F 6.8 °F 43% 30.36 in 10.0 mi NE 12.7 mph - N/A   Clear
3:15 PM 26.6 °F 15.7 °F 6.8 °F 43% 30.36 in 10.0 mi NNE 12.7 mph - N/A   Clear
3:35 PM 26.6 °F 16.2 °F 6.8 °F 43% 30.35 in 10.0 mi NE 11.5 mph - N/A   Clear
3:55 PM 26.6 °F 14.3 °F 6.8 °F 43% 30.35 in 10.0 mi NNE 16.1 mph - N/A   Clear
4:15 PM 26.6 °F 15.7 °F 6.8 °F 43% 30.33 in 10.0 mi NE 12.7 mph - N/A   Clear
4:35 PM 26.6 °F 14.7 °F 6.8 °F 43% 30.33 in 10.0 mi NNE 15.0 mph - N/A   Clear
4:55 PM 26.6 °F 15.2 °F 6.8 °F 43% 30.31 in 10.0 mi NNE 13.8 mph - N/A   Clear
5:15 PM 26.6 °F 16.2 °F 6.8 °F 43% 30.32 in 10.0 mi NNE 11.5 mph 18.4 mph N/A   Clear
5:35 PM 26.6 °F 16.8 °F 6.8 °F 43% 30.31 in 10.0 mi NNE 10.4 mph - N/A   Clear
5:55 PM 24.8 °F 14.0 °F 6.8 °F 46% 30.32 in 10.0 mi NNE 11.5 mph 18.4 mph N/A   Clear
6:15 PM 24.8 °F 12.9 °F 6.8 °F 46% 30.33 in 10.0 mi NNE 13.8 mph - N/A   Clear
6:35 PM 24.8 °F 14.0 °F 6.8 °F 46% 30.32 in 10.0 mi NE 11.5 mph - N/A   Clear
6:55 PM 24.8 °F 14.0 °F 6.8 °F 46% 30.32 in 10.0 mi NNE 11.5 mph - N/A   Clear
7:15 PM 24.8 °F 15.3 °F 6.8 °F 46% 30.32 in 10.0 mi NE 9.2 mph - N/A   Clear
7:35 PM 24.8 °F 16.1 °F 6.8 °F 46% 30.32 in 10.0 mi NE 8.1 mph - N/A   Clear
7:55 PM 24.8 °F 14.6 °F 6.8 °F 46% 30.33 in 10.0 mi NE 10.4 mph - N/A   Clear
8:15 PM 24.8 °F 14.6 °F 6.8 °F 46% 30.33 in 10.0 mi NE 10.4 mph - N/A   Clear
8:35 PM 24.8 °F 15.3 °F 6.8 °F 46% 30.33 in 10.0 mi NE 9.2 mph 16.1 mph N/A   Clear
8:55 PM 24.8 °F 14.6 °F 6.8 °F 46% 30.33 in 10.0 mi NE 10.4 mph - N/A   Clear
9:15 PM 24.8 °F 15.3 °F 6.8 °F 46% 30.32 in 10.0 mi NE 9.2 mph - N/A   Clear
9:35 PM 24.8 °F 14.6 °F 6.8 °F 46% 30.33 in 10.0 mi NE 10.4 mph - N/A   Clear
9:55 PM 23.0 °F 13.1 °F 8.6 °F 54% 30.33 in 10.0 mi NE 9.2 mph - N/A   Clear
10:15 PM 23.0 °F 11.7 °F 8.6 °F 54% 30.32 in 10.0 mi NE 11.5 mph - N/A   Clear
10:35 PM 23.0 °F 10.6 °F 8.6 °F 54% 30.31 in 10.0 mi NE 13.8 mph - N/A   Clear
10:55 PM 23.0 °F 11.7 °F 8.6 °F 54% 30.30 in 10.0 mi NE 11.5 mph - N/A   Clear
11:15 PM 21.2 °F 8.9 °F 8.6 °F 58% 30.30 in 10.0 mi NE 12.7 mph - N/A   Clear
11:35 PM 21.2 °F 10.1 °F 8.6 °F 58% 30.29 in 10.0 mi NE 10.4 mph - N/A   Clear
11:55 PM 21.2 °F 10.9 °F 8.6 °F 58% 30.29 in 10.0 mi NE 9.2 mph - N/A   Clear